User: anonymous   Login
Location: Melbourne
(37.8170°S, 144.9670°E)
Time: 20:27:31
(UTC+11:00)
Language:

ADEOS Rocket - Orbit

View from above orbital plane
View from above orbital plane
View from above satellite
View from above satellite

Ground track
Ground track

The orbit data is extracted from the following two-line orbital elements,

1 24279U 96046C   17053.85069684 -.00000009  00000-0  35925-4 0  9999
2 24279  98.7391  12.0125 0299370 220.0289 194.0959 13.47075274  8855
Epoch (UTC): 22 February 2017 20:25:00
Eccentricity: 0.0299370
inclination: 98.7391°
perigee height: 859 km
apogee height: 1306 km
right ascension of ascending node: 12.0125°
argument of perigee: 220.0289°
revolutions per day: 13.47075274
mean anomaly at epoch: 194.0959°
orbit number at epoch: 885

The dashed part of the orbit path shows where the satellite is in the earth's shadow,  

DLR